Find Starlink 35588

NORAD ID: 66424 Int'l Des: 2025-259 Owner: SPXS Country: US Constellation: starlink operational
LEOCIRCULAR

当前视图

正在加载3D地球...

About Starlink 35588

Starlink 35588 (NORAD 66424) is a starlink constellation satellite (v2 mini) launched Nov 11, 2025 by SPXS of US. It operates in LEO, CIRCULAR orbit with a mass of 575.00 kg.

关于 Starlink 35588

正在加载描述...

即将过境

Passes for default location (London). Set your location on the main map for personalized predictions.

高度历史

Loading altitude history...

两行轨道根数

1 66424U 25259C 26194.25456187 .00015516 00000-0 57172-3 0 9998
2 66424 43.0068 285.3387 0002432 280.5684 79.4894 15.27604885 38698
Epoch: Jul 13, 2026 • Age: 25 hours

当前状态

高度 492.7 km
远地点 / 近地点 N/A
速度 7.62 km/s
星下点 -37.48°S, 121.66°E
发射日期 Nov 11, 2025
运行时间 0.6 years
类型 internet

技术详情

分类 Payload
质量 575.00 kg
干质量 530.00 kg
总质量 575.00 kg
长度 0.30 m
直径 4.10 m
跨度 29.00 m
形状 Box + pan
制造商 SPXS
平台类型 Starlink V2MO
阶段状态 In Orbit
所有者/国家 SPXS/US

Most Searched